Weather History for Ashland, WI

Change the Weather History Date:

Saturday, February 25, 2012

  Actual Average Record
Temperature  
Mean Temperature 22 °F -  
Max Temperature 28 °F 31 °F 58 °F (1976)
Min Temperature 15 °F 4 °F -26 °F (1950)
Degree Days  
Heating Degree Days 44    
Moisture  
Dew Point 13 °F    
Average Humidity 70    
Maximum Humidity 81    
Minimum Humidity 51    
Precipitation  
Precipitation 0.00 in - - ()
Sea Level Pressure  
Sea Level Pressure 30.15 in    
Wind  
Wind Speed 7 mph (WSW)    
Max Wind Speed 12 mph    
Max Gust Speed -    
Visibility 10 miles    
Events Snow    
Averages and records for this station are not official NWS values.
T = Trace of Precipitation, MM = Missing Value Source: NWS Daily Summary

Daily Weather History Graph

Daily Weather History Graph

Search for Another Location

Airport:

Trip Planner

Search our weather history database for the weather conditions in past years. The results will help you decide how hot, cold, wet, or windy it might be!

Date:

Astronomy

Feb. 25, 2012 Rise Set
Actual Time 6:51 AM CST 5:43 PM CST
Civil Twilight 6:20 AM CST 6:13 PM CST
Nautical Twilight 5:45 AM CST 6:48 PM CST
Astronomical Twilight 5:10 AM CST 7:23 PM CST
Moon 7:58 AM CST (2/25) 10:03 PM CST (2/25)
Length of Visible Light 11h 52m
Length of Day
10h 51m
Waxing Crescent, 14% of the Moon is Illuminated
Feb 25
Waxing Crescent
Feb 29
First Quarter
Mar 8
Full
Mar 14
Last Quarter
Mar 22
New

Hourly Weather History & Observations

Time (CST) Temp. Windchill Dew Point Humidity Pressure Visibility Wind Dir Wind Speed Gust Speed Precip Events Conditions
12:53 AM 17.1 °F 10.0 °F 12.0 °F 81% 30.01 in 10.0 mi West 4.6 mph - N/A   Overcast
1:49 AM 17.6 °F 7.3 °F 12.2 °F 79% 29.97 in 5.0 mi West 8.1 mph - 0.00 in Snow Light Snow
1:53 AM 17.1 °F 5.8 °F 12.0 °F 81% 30.02 in 6.0 mi West 9.2 mph - 0.00 in Snow Light Snow
2:53 AM 17.1 °F 6.6 °F 12.0 °F 81% 30.04 in 8.0 mi West 8.1 mph - 0.00 in Snow Light Snow
3:53 AM 16.0 °F 5.3 °F 10.9 °F 81% 30.06 in 10.0 mi West 8.1 mph - 0.00 in   Overcast
4:53 AM 16.0 °F 2.9 °F 10.0 °F 77% 30.09 in 10.0 mi West 11.5 mph - N/A   Overcast
6:53 AM 15.1 °F 2.5 °F 10.0 °F 80% 30.13 in 10.0 mi West 10.4 mph - N/A   Overcast
7:21 AM 15.8 °F 4.2 °F 10.4 °F 79% 30.09 in 10.0 mi West 9.2 mph - N/A   Overcast
7:53 AM 16.0 °F 5.3 °F 10.9 °F 81% 30.16 in 10.0 mi WSW 8.1 mph - N/A   Overcast
8:36 AM 17.6 °F 7.3 °F 12.2 °F 79% 30.12 in 10.0 mi WSW 8.1 mph - N/A   Scattered Clouds
8:53 AM 19.0 °F 9.0 °F 12.9 °F 77% 30.17 in 10.0 mi WSW 8.1 mph - N/A   Clear
9:53 AM 23.0 °F 15.8 °F 15.1 °F 72% 30.19 in 10.0 mi SW 5.8 mph - N/A   Mostly Cloudy
10:16 AM 24.8 °F 17.9 °F 15.8 °F 69% 30.15 in 10.0 mi WSW 5.8 mph - N/A   Overcast
10:53 AM 26.1 °F 17.6 °F 15.1 °F 63% 30.20 in 10.0 mi NNW 8.1 mph - N/A   Overcast
11:53 AM 27.0 °F 21.6 °F 16.0 °F 63% 30.21 in 10.0 mi NNW 4.6 mph - N/A   Overcast
1:16 PM 28.4 °F 22.2 °F 15.8 °F 59% 30.15 in 10.0 mi WSW 5.8 mph - N/A   Mostly Cloudy
1:27 PM 26.6 °F 22.6 °F 14.0 °F 59% 30.15 in 10.0 mi Variable 3.5 mph - N/A   Mostly Cloudy
1:53 PM 28.0 °F 20.8 °F 14.0 °F 56% 30.19 in 10.0 mi West 6.9 mph - N/A   Overcast
2:53 PM 28.0 °F 20.8 °F 12.9 °F 53% 30.18 in 10.0 mi WSW 6.9 mph - N/A   Overcast
3:53 PM 28.9 °F 23.9 °F 12.9 °F 51% 30.18 in 10.0 mi South 4.6 mph - N/A   Overcast
4:53 PM 27.0 °F - 14.0 °F 58% 30.19 in 10.0 mi Calm Calm - N/A   Mostly Cloudy
5:53 PM 23.0 °F 18.4 °F 14.0 °F 68% 30.19 in 10.0 mi NE 3.5 mph - N/A   Partly Cloudy
6:53 PM 21.9 °F 15.7 °F 14.0 °F 72% 30.21 in 10.0 mi ESE 4.6 mph - N/A   Scattered Clouds
7:53 PM 21.9 °F 17.2 °F 14.0 °F 72% 30.21 in 10.0 mi ESE 3.5 mph - N/A   Clear
8:53 PM 21.9 °F 17.2 °F 14.0 °F 72% 30.22 in 10.0 mi SSE 3.5 mph - N/A   Clear
9:53 PM 21.9 °F 17.2 °F 12.9 °F 68% 30.23 in 10.0 mi SE 3.5 mph - N/A   Clear
10:53 PM 21.9 °F - 12.9 °F 68% 30.24 in 10.0 mi Calm Calm - N/A   Clear
11:53 PM 21.9 °F 17.2 °F 12.9 °F 68% 30.22 in 10.0 mi SE 3.5 mph - N/A   Partly Cloudy